This demonstration page uses our WeatherBlox Daily Observations layout. Learn more.

Left ArrowRight Arrow

39.51506, -84.39828

Hourly Observations for January 25, 2022

Temp ( °F °C ) Dew Point ( °F °C ) Humidity (%) Winds ( mph kmh ) Pressure ( in mb ) Visibility ( mi km ) Precip ( " mm )
12:15 am 00:15 Cloudy 30 -1 25 -3.7 82 82 N 17 28 29.94 1014 10 16 0.00 0.00
12:35 am 00:35 Cloudy 30 -1.2 25 -4.1 81 81 N 14 22 29.95 1014 10 16 0.00 0.00
12:55 am 00:55 Cloudy 29 -1.5 24 -4.3 81 81 NNW 12 19 29.96 1015 10 16 0.00 0.00
1:15 am 01:15 Cloudy 29 -1.7 23 -4.9 79 79 N 13 20 29.97 1015 10 16 0.00 0.00
1:35 am 01:35 Cloudy 29 -1.9 23 -5 80 80 NNW 12 19 29.97 1015 10 16 0.00 0.00
1:55 am 01:55 Cloudy 28 -2.2 23 -4.8 83 83 N 9 15 29.98 1015 10 16 0.00 0.00
2:15 am 02:15 Cloudy 27 -2.8 22 -5.4 83 83 NNE 13 20 29.99 1016 7 11 0.00 0.00
2:35 am 02:35 Cloudy 27 -3 22 -5.7 82 82 N 12 19 30.00 1016 10 16 0.00 0.00
2:55 am 02:55 Cloudy 26 -3.1 22 -5.7 82 82 NNE 9 15 30.01 1016 10 16 0.00 0.00
3:15 am 03:15 Cloudy 26 -3.2 21 -6.3 79 79 NNE 12 19 30.02 1017 10 16 0.00 0.00
3:35 am 03:35 Cloudy 26 -3.3 20 -6.7 78 78 NNE 8 13 30.03 1017 10 16 0.00 0.00
3:55 am 03:55 Cloudy 26 -3.5 19 -7.1 76 76 N 8 13 30.03 1017 10 16 0.00 0.00
4:15 am 04:15 Cloudy 25 -3.7 17 -8.3 71 71 N 9 15 30.06 1018 10 16 0.00 0.00
4:35 am 04:35 Cloudy 25 -3.9 17 -8.2 72 72 NNE 12 19 30.06 1018 10 16 0.00 0.00
4:55 am 04:55 Cloudy 24 -4.4 13 -10.4 63 63 N 12 19 30.07 1018 10 16 0.00 0.00
5:15 am 05:15 Cloudy 24 -4.7 13 -10.3 65 65 N 6 9 30.08 1019 10 16 0.00 0.00
5:35 am 05:35 Cloudy 23 -4.9 13 -10.3 66 66 N 8 13 30.09 1019 10 16 0.00 0.00
5:55 am 05:55 Partly Cloudy 22 -5.8 13 -10.8 68 68 N 6 9 30.11 1020 10 16 0.00 0.00
6:15 am 06:15 Clear 22 -5.8 13 -10.7 69 69 NNW 3 6 30.12 1020 10 16 0.00 0.00
6:35 am 06:35 Clear 20 -6.6 13 -10.7 73 73 N 7 11 30.14 1021 10 16 0.00 0.00
6:55 am 06:55 Clear 20 -6.4 14 -10.2 75 75 N 7 11 30.15 1021 10 16 0.00 0.00
7:15 am 07:15 Clear 20 -6.7 14 -10 78 78 N 5 7 30.16 1021 10 16 0.00 0.00
7:35 am 07:35 Clear 19 -7.3 14 -10.2 80 80 NNW 6 9 30.18 1022 10 16 0.00 0.00
7:55 am 07:55 Sunny 19 -7.3 14 -10.1 81 81 N 7 11 30.20 1023 10 16 0.00 0.00
8:15 am 08:15 Sunny 19 -7.5 14 -10.2 81 81 N 6 9 30.20 1023 10 16 0.00 0.00
8:35 am 08:35 Sunny 19 -7.5 14 -10.2 81 81 N 6 9 30.21 1023 10 16 0.00 0.00
8:55 am 08:55 Sunny 20 -6.8 14 -10.2 77 77 Calm 30.21 1023 10 16 0.00 0.00
9:15 am 09:15 Sunny 21 -6.2 14 -9.8 76 76 Calm 30.23 1024 10 16 0.00 0.00
9:35 am 09:35 Sunny 21 -5.9 14 -10.1 73 73 NNE 6 9 30.23 1024 10 16 0.00 0.00
9:55 am 09:55 Sunny 22 -5.7 14 -9.9 73 73 NNE 9 15 30.24 1024 10 16 0.00 0.00
10:15 am 10:15 Sunny 23 -5 15 -9.3 72 72 N 7 11 30.25 1024 10 16 0.00 0.00
10:35 am 10:35 Partly Cloudy 23 -5 15 -9.4 72 72 N 6 9 30.26 1025 10 16 0.00 0.00
10:55 am 10:55 Mostly Cloudy 23 -4.8 15 -9.5 70 70 Calm 30.26 1025 10 16 0.00 0.00
11:15 am 11:15 Mostly Cloudy 24 -4.2 16 -9.1 69 69 N 7 11 30.27 1025 10 16 0.00 0.00
11:35 am 11:35 Mostly Cloudy 27 -2.8 18 -8 68 68 NW 7 11 30.26 1025 10 16 0.00 0.00
11:55 am 11:55 Mostly Cloudy 26 -3.1 18 -7.9 70 70 NNE 8 13 30.26 1025 10 16 0.00 0.00
12:15 pm 12:15 Mostly Cloudy 27 -3 17 -8.5 66 66 NE 8 13 30.26 1025 10 16 0.00 0.00
12:35 pm 12:35 Mostly Cloudy 26 -3.2 16 -9.1 64 64 NNE 7 11 30.25 1025 10 16 0.00 0.00
12:55 pm 12:55 Cloudy 26 -3.2 15 -9.5 62 62 NE 5 7 30.25 1025 10 16 0.00 0.00
1:15 pm 13:15 Cloudy 27 -3 13 -10.7 56 56 N 6 9 30.24 1024 10 16 0.00 0.00
1:35 pm 13:35 Cloudy 26 -3.1 14 -10 59 59 NNE 9 15 30.24 1024 10 16 0.00 0.00
1:55 pm 13:55 Cloudy 27 -2.9 13 -10.5 56 56 NNW 8 13 30.25 1024 10 16 0.00 0.00
2:15 pm 14:15 Cloudy 27 -2.7 11 -11.7 50 50 NNW 10 17 30.25 1024 10 16 0.00 0.00
2:35 pm 14:35 Cloudy 27 -2.7 12 -11 53 53 NNW 7 11 30.25 1024 10 16 0.00 0.00
2:55 pm 14:55 Cloudy 27 -2.7 13 -10.7 55 55 N 8 13 30.25 1024 10 16 0.00 0.00
3:15 pm 15:15 Cloudy 26 -3.2 14 -9.9 60 60 NNE 12 19 30.26 1025 10 16 0.00 0.00
3:35 pm 15:35 Cloudy 26 -3.2 14 -9.9 60 60 N 9 15 30.26 1025 10 16 0.00 0.00
3:55 pm 15:55 Cloudy 26 -3.3 14 -9.8 61 61 NE 6 9 30.27 1025 10 16 0.00 0.00
4:15 pm 16:15 Cloudy 25 -3.7 15 -9.7 63 63 NNE 10 17 30.29 1026 10 16 0.00 0.00
4:35 pm 16:35 Cloudy 26 -3.6 15 -9.7 63 63 NE 8 13 30.29 1026 10 16 0.00 0.00
4:55 pm 16:55 Cloudy 25 -3.8 13 -10.5 60 60 NE 6 9 30.30 1026 10 16 0.00 0.00
5:15 pm 17:15 Cloudy 25 -3.7 12 -11.2 56 56 N 6 9 30.31 1026 10 16 0.00 0.00
5:35 pm 17:35 Cloudy 25 -4 11 -11.4 57 57 NNE 5 7 30.31 1026 10 16 0.00 0.00
5:55 pm 17:55 Cloudy 24 -4.6 11 -11.7 58 58 NNE 6 9 30.31 1026 10 16 0.00 0.00
6:15 pm 18:15 Mostly Cloudy 23 -5 11 -11.6 60 60 N 5 7 30.33 1027 10 16 0.00 0.00
6:35 pm 18:35 Partly Cloudy 22 -5.5 11 -11.9 61 61 N 5 7 30.33 1027 10 16 0.00 0.00
6:55 pm 18:55 Clear 22 -5.8 11 -11.8 63 63 N 6 9 30.34 1027 10 16 0.00 0.00
7:15 pm 19:15 Clear 20 -6.6 11 -11.4 69 69 NNE 8 13 30.34 1028 10 16 0.00 0.00
7:35 pm 19:35 Clear 19 -7.3 11 -11.7 71 71 NNE 6 9 30.36 1028 10 16 0.00 0.00
7:55 pm 19:55 Clear 18 -7.7 11 -11.9 72 72 NNE 7 11 30.36 1028 10 16 0.00 0.00
8:15 pm 20:15 Clear 18 -7.9 10 -12.2 72 72 NNE 3 6 30.37 1028 10 16 0.00 0.00
8:35 pm 20:35 Clear 17 -8.2 9 -12.6 71 71 NNE 5 7 30.38 1029 10 16 0.00 0.00
8:55 pm 20:55 Clear 16 -8.7 9 -13 71 71 NNE 6 9 30.38 1029 10 16 0.00 0.00
9:15 pm 21:15 Clear 17 -8.5 7 -13.7 66 66 N 6 9 30.39 1029 10 16 0.00 0.00
9:35 pm 21:35 Clear 16 -9.1 6 -14.3 66 66 N 3 6 30.40 1030 10 16 0.00 0.00
9:55 pm 21:55 Clear 15 -9.6 5 -15.1 65 65 N 5 7 30.41 1030 10 16 0.00 0.00
10:15 pm 22:15 Clear 14 -10 3 -16 62 62 N 8 13 30.42 1030 10 16 0.00 0.00
10:35 pm 22:35 Clear 13 -10.3 0 -17.6 55 55 N 6 9 30.43 1031 10 16 0.00 0.00
10:55 pm 22:55 Clear 13 -10.5 -1 -18.4 53 53 N 9 15 30.44 1031 10 16 0.00 0.00
11:15 pm 23:15 Clear 13 -10.6 -1 -18.6 52 52 N 7 11 30.45 1031 10 16 0.00 0.00
11:35 pm 23:35 Clear 12 -10.9 -3 -19.6 49 49 N 8 13 30.45 1031 10 16 0.00 0.00
11:55 pm 23:55 Clear 11 -11.6 -3 -19.3 53 53 N 5 7 30.45 1031 10 16 0.00 0.00

Powered by AerisWeather